N3514T KFDK-KBWI

Flight info

Callsign N3514T
Flight time 0h 33m
Altitude 6000
Route KFDK EMI DANII KBWI
Aircraft C172/L-V/N

Departure

Time 2026-04-27 00:41
Airport Frederick Municipal Airport (KFDK)

Arrival

Time 2026-04-27 01:14
Airport Baltimore/Washington International Thurgood Marshall Airport (KBWI)
Time Latitude Longitude Altitude Speed Heading
2026-04-27 00:26 39.41479 -77.37941 302 ft 0 kts 273°
2026-04-27 00:31 39.41479 -77.37943 302 ft 2 kts 279°
2026-04-27 00:31 39.41462 -77.37969 304 ft 3 kts 161°
2026-04-27 00:31 39.41455 -77.37947 303 ft 5 kts 73°
2026-04-27 00:32 39.41458 -77.37898 304 ft 5 kts 95°
2026-04-27 00:32 39.41456 -77.37860 302 ft 3 kts 95°
2026-04-27 00:32 39.41455 -77.37853 303 ft 0 kts 94°
2026-04-27 00:32 39.41455 -77.37848 303 ft 2 kts 94°
2026-04-27 00:33 39.41460 -77.37796 303 ft 7 kts 49°
2026-04-27 00:33 39.41530 -77.37781 300 ft 14 kts
2026-04-27 00:33 39.41574 -77.37723 297 ft 11 kts 96°
2026-04-27 00:33 39.41566 -77.37621 297 ft 8 kts 96°
2026-04-27 00:34 39.41563 -77.37550 296 ft 8 kts 82°
2026-04-27 00:34 39.41593 -77.37507 295 ft 6 kts 40°
2026-04-27 00:34 39.41628 -77.37469 294 ft 7 kts 41°
2026-04-27 00:34 39.41670 -77.37418 291 ft 9 kts 37°
2026-04-27 00:35 39.41718 -77.37369 291 ft 9 kts 40°
2026-04-27 00:35 39.41760 -77.37325 294 ft 7 kts 39°
2026-04-27 00:35 39.41791 -77.37291 291 ft 5 kts 41°
2026-04-27 00:35 39.41822 -77.37256 293 ft 7 kts 41°
2026-04-27 00:36 39.41868 -77.37205 292 ft 10 kts 40°
2026-04-27 00:36 39.41930 -77.37137 291 ft 12 kts 40°
2026-04-27 00:36 39.41989 -77.37074 293 ft 9 kts 39°
2026-04-27 00:36 39.42034 -77.37024 293 ft 8 kts 40°
2026-04-27 00:37 39.42066 -77.37000 294 ft 3 kts
2026-04-27 00:37 39.42097 -77.36983 290 ft 9 kts 45°
2026-04-27 00:37 39.42103 -77.36950 290 ft 0 kts 111°
2026-04-27 00:38 39.42102 -77.36944 290 ft 5 kts 109°
2026-04-27 00:39 39.42098 -77.36918 290 ft 3 kts 128°
2026-04-27 00:39 39.42061 -77.36873 290 ft 8 kts 134°
2026-04-27 00:39 39.42035 -77.36865 294 ft 4 kts 233°
2026-04-27 00:39 39.42022 -77.36882 291 ft 10 kts 219°
2026-04-27 00:40 39.41821 -77.37099 293 ft 65 kts 219°
2026-04-27 00:40 39.41364 -77.37590 304 ft 103 kts 218°
2026-04-27 00:40 39.40777 -77.38217 511 ft 105 kts 222°
2026-04-27 00:40 39.40231 -77.38805 783 ft 104 kts 223°
2026-04-27 00:41 39.39659 -77.39398 1011 ft 103 kts 222°
2026-04-27 00:41 39.39124 -77.39967 1269 ft 105 kts 218°
2026-04-27 00:41 39.38525 -77.40538 1482 ft 108 kts 218°
2026-04-27 00:41 39.37929 -77.41127 1712 ft 108 kts 218°
2026-04-27 00:42 39.37455 -77.41850 1938 ft 105 kts 247°
2026-04-27 00:42 39.37229 -77.42741 2159 ft 104 kts 268°
2026-04-27 00:42 39.37357 -77.43615 2392 ft 97 kts 307°
2026-04-27 00:42 39.37805 -77.44227 2613 ft 91 kts 340°
2026-04-27 00:43 39.38409 -77.44346 2739 ft 95 kts 17°
2026-04-27 00:43 39.38967 -77.43857 2747 ft 106 kts 66°
2026-04-27 00:43 39.39221 -77.42931 2742 ft 113 kts 64°
2026-04-27 00:43 39.39662 -77.42076 2735 ft 116 kts 54°
2026-04-27 00:44 39.40148 -77.41241 2738 ft 116 kts 54°
2026-04-27 00:44 39.40635 -77.40401 2735 ft 117 kts 54°
2026-04-27 00:44 39.41065 -77.39505 2738 ft 117 kts 65°
2026-04-27 00:44 39.41329 -77.38513 2736 ft 117 kts 76°
2026-04-27 00:45 39.41520 -77.37499 2735 ft 118 kts 75°
2026-04-27 00:45 39.41786 -77.36512 2724 ft 117 kts 54°
2026-04-27 00:45 39.42412 -77.35844 2724 ft 117 kts 44°
2026-04-27 00:45 39.42790 -77.34952 2729 ft 115 kts 76°
2026-04-27 00:46 39.42957 -77.33933 2733 ft 116 kts 81°
2026-04-27 00:46 39.43028 -77.32888 2735 ft 117 kts 84°
2026-04-27 00:46 39.43088 -77.31839 2736 ft 117 kts 84°
2026-04-27 00:46 39.43146 -77.30791 2744 ft 117 kts 83°
2026-04-27 00:47 39.43260 -77.29742 2734 ft 118 kts 79°
2026-04-27 00:47 39.43409 -77.28721 2736 ft 117 kts 76°
2026-04-27 00:47 39.43584 -77.27718 2862 ft 109 kts 76°
2026-04-27 00:47 39.43744 -77.26796 3053 ft 102 kts 76°
2026-04-27 00:48 39.43898 -77.25919 3245 ft 98 kts 76°
2026-04-27 00:48 39.44048 -77.25074 3461 ft 96 kts 76°
2026-04-27 00:48 39.44194 -77.24247 3657 ft 93 kts 76°
2026-04-27 00:48 39.44334 -77.23431 3853 ft 92 kts 76°
2026-04-27 00:49 39.44472 -77.22623 4052 ft 91 kts 76°
2026-04-27 00:49 39.44608 -77.21824 4256 ft 90 kts 76°
2026-04-27 00:49 39.44743 -77.21040 4455 ft 89 kts 76°
2026-04-27 00:49 39.44874 -77.20274 4656 ft 88 kts 76°
2026-04-27 00:50 39.45037 -77.19521 4861 ft 87 kts 72°
2026-04-27 00:50 39.45345 -77.18028 5258 ft 84 kts 75°
2026-04-27 00:50 39.45486 -77.17297 5457 ft 83 kts 73°
2026-04-27 00:51 39.45631 -77.16575 5655 ft 82 kts 72°
2026-04-27 00:51 39.45773 -77.15872 5846 ft 79 kts 72°
2026-04-27 00:51 39.45913 -77.15191 6050 ft 77 kts 71°
2026-04-27 00:51 39.46050 -77.14522 6232 ft 77 kts 71°
2026-04-27 00:52 39.46203 -77.13789 6238 ft 93 kts 71°
2026-04-27 00:52 39.46377 -77.12931 6241 ft 103 kts 72°
2026-04-27 00:52 39.46567 -77.12001 6239 ft 110 kts 72°
2026-04-27 00:52 39.46766 -77.11029 6240 ft 113 kts 72°
2026-04-27 00:53 39.46965 -77.10060 6236 ft 108 kts 72°
2026-04-27 00:53 39.47156 -77.09140 6228 ft 104 kts 71°
2026-04-27 00:53 39.47343 -77.08246 6222 ft 102 kts 71°
2026-04-27 00:53 39.47525 -77.07371 6214 ft 100 kts 71°
2026-04-27 00:54 39.47705 -77.06511 6216 ft 99 kts 71°
2026-04-27 00:54 39.47881 -77.05668 6218 ft 98 kts 71°
2026-04-27 00:54 39.48058 -77.04818 6217 ft 98 kts 71°
2026-04-27 00:54 39.48234 -77.03969 6215 ft 97 kts 71°
2026-04-27 00:55 39.48409 -77.03124 6214 ft 97 kts 71°
2026-04-27 00:55 39.48585 -77.02277 6215 ft 98 kts 71°
2026-04-27 00:55 39.48763 -77.01418 6215 ft 99 kts 71°
2026-04-27 00:55 39.48940 -77.00558 6214 ft 99 kts 71°
2026-04-27 00:56 39.49118 -76.99705 6214 ft 98 kts 71°
2026-04-27 00:56 39.49295 -76.98851 6214 ft 98 kts 71°
2026-04-27 00:56 39.49309 -76.97987 6218 ft 106 kts 111°
2026-04-27 00:56 39.48857 -76.97223 6221 ft 106 kts 115°
2026-04-27 00:57 39.48443 -76.96435 6224 ft 108 kts 123°
2026-04-27 00:57 39.47912 -76.95734 6230 ft 110 kts 133°
2026-04-27 00:57 39.47314 -76.95103 6230 ft 111 kts 133°
2026-04-27 00:57 39.46728 -76.94452 6230 ft 111 kts 132°
2026-04-27 00:58 39.46160 -76.93783 6231 ft 110 kts 130°
2026-04-27 00:58 39.45594 -76.93107 6230 ft 111 kts 130°
2026-04-27 00:58 39.45040 -76.92421 6232 ft 110 kts 126°
2026-04-27 00:58 39.44529 -76.91693 6234 ft 109 kts 124°
2026-04-27 00:59 39.44033 -76.90953 6231 ft 109 kts 122°
2026-04-27 00:59 39.43574 -76.90197 6233 ft 108 kts 120°
2026-04-27 00:59 39.43104 -76.89430 6231 ft 109 kts 121°
2026-04-27 00:59 39.42619 -76.88679 6230 ft 109 kts 123°
2026-04-27 01:00 39.42124 -76.87937 6234 ft 109 kts 123°
2026-04-27 01:00 39.41629 -76.87194 6231 ft 109 kts 123°
2026-04-27 01:00 39.41128 -76.86451 6225 ft 110 kts 128°
2026-04-27 01:00 39.40371 -76.86221 6236 ft 124 kts 196°
2026-04-27 01:01 39.39760 -76.86985 6174 ft 129 kts 241°
2026-04-27 01:01 39.39259 -76.88005 5935 ft 139 kts 239°
2026-04-27 01:01 39.38734 -76.89058 5702 ft 142 kts 239°
2026-04-27 01:01 39.38191 -76.90160 5458 ft 145 kts 239°
2026-04-27 01:02 39.37652 -76.91265 5220 ft 144 kts 239°
2026-04-27 01:02 39.37133 -76.92342 4974 ft 142 kts 239°
2026-04-27 01:02 39.36612 -76.93417 4716 ft 140 kts 234°
2026-04-27 01:02 39.35795 -76.93981 4415 ft 135 kts 176°
2026-04-27 01:03 39.34892 -76.93875 4085 ft 128 kts 168°
2026-04-27 01:03 39.34008 -76.93764 3760 ft 127 kts 169°
2026-04-27 01:03 39.33132 -76.93661 3429 ft 126 kts 169°
2026-04-27 01:03 39.32257 -76.93559 3102 ft 126 kts 169°
2026-04-27 01:04 39.31431 -76.93459 3000 ft 116 kts 168°
2026-04-27 01:04 39.30621 -76.93357 2996 ft 117 kts 169°
2026-04-27 01:04 39.29803 -76.93253 3000 ft 117 kts 168°
2026-04-27 01:04 39.29006 -76.93100 2995 ft 116 kts 155°
2026-04-27 01:05 39.28272 -76.92684 2996 ft 115 kts 149°
2026-04-27 01:05 39.27544 -76.92248 2998 ft 116 kts 149°
2026-04-27 01:05 39.26816 -76.91806 2997 ft 116 kts 149°
2026-04-27 01:05 39.26083 -76.91369 2993 ft 116 kts 149°
2026-04-27 01:06 39.25345 -76.90930 2994 ft 117 kts 149°
2026-04-27 01:06 39.24609 -76.90487 2997 ft 117 kts 149°
2026-04-27 01:06 39.23877 -76.90047 3009 ft 116 kts 149°
2026-04-27 01:06 39.23181 -76.89546 3001 ft 111 kts 126°
2026-04-27 01:07 39.22762 -76.88747 2980 ft 111 kts 117°
2026-04-27 01:07 39.22298 -76.87864 2763 ft 124 kts 119°
2026-04-27 01:07 39.21807 -76.86928 2548 ft 125 kts 120°
2026-04-27 01:07 39.21333 -76.86024 2316 ft 119 kts 120°
2026-04-27 01:08 39.20883 -76.85146 2088 ft 117 kts 119°
2026-04-27 01:08 39.20457 -76.84299 2010 ft 107 kts 119°
2026-04-27 01:08 39.20064 -76.83515 2006 ft 101 kts 119°
2026-04-27 01:08 39.19689 -76.82774 2005 ft 98 kts 119°
2026-04-27 01:09 39.19319 -76.82046 2011 ft 96 kts 119°
2026-04-27 01:09 39.18958 -76.81336 2008 ft 94 kts 119°
2026-04-27 01:09 39.18603 -76.80642 2010 ft 93 kts 119°
2026-04-27 01:09 39.18286 -76.79912 1984 ft 91 kts 108°
2026-04-27 01:10 39.18180 -76.79138 1992 ft 87 kts 97°
2026-04-27 01:10 39.18088 -76.78380 1996 ft 85 kts 95°
2026-04-27 01:10 39.18010 -76.77572 1818 ft 97 kts 94°
2026-04-27 01:10 39.17939 -76.76722 1597 ft 95 kts 94°
2026-04-27 01:11 39.17877 -76.75879 1371 ft 95 kts 94°
2026-04-27 01:11 39.17818 -76.75026 1136 ft 96 kts 94°
2026-04-27 01:11 39.17772 -76.74223 1080 ft 81 kts 94°
2026-04-27 01:11 39.17733 -76.73537 1015 ft 79 kts 93°
2026-04-27 01:12 39.17693 -76.72800 868 ft 83 kts 95°
2026-04-27 01:12 39.17653 -76.72049 740 ft 87 kts 95°
2026-04-27 01:12 39.17607 -76.71279 667 ft 85 kts 95°
2026-04-27 01:12 39.17566 -76.70530 614 ft 83 kts 95°
2026-04-27 01:13 39.17524 -76.69796 546 ft 83 kts 94°
2026-04-27 01:13 39.17503 -76.69099 426 ft 72 kts 96°
2026-04-27 01:13 39.17455 -76.68467 206 ft 70 kts 96°
2026-04-27 01:13 39.17419 -76.67907 133 ft 53 kts 95°
2026-04-27 01:14 39.17395 -76.67546 140 ft 25 kts 94°
2026-04-27 01:14 39.17384 -76.67331 144 ft 23 kts 93°
2026-04-27 01:14 39.17372 -76.67129 146 ft 22 kts 94°
2026-04-27 01:14 39.17361 -76.66931 146 ft 24 kts 94°
2026-04-27 01:15 39.17349 -76.66702 142 ft 26 kts 94°
2026-04-27 01:15 39.17424 -76.66591 142 ft 7 kts
2026-04-27 01:15 39.17427 -76.66590 142 ft 0 kts 14°
2026-04-27 01:16 39.17444 -76.66564 141 ft 7 kts 60°
2026-04-27 01:16 39.17465 -76.66499 140 ft 10 kts 45°
2026-04-27 01:16 39.17526 -76.66436 140 ft 13 kts 34°
2026-04-27 01:17 39.17602 -76.66371 142 ft 14 kts 32°
2026-04-27 01:17 39.17686 -76.66299 144 ft 16 kts 32°
2026-04-27 01:17 39.17784 -76.66218 145 ft 18 kts 35°
2026-04-27 01:17 39.17895 -76.66126 146 ft 20 kts 33°
2026-04-27 01:18 39.18023 -76.66018 140 ft 17 kts 34°
2026-04-27 01:18 39.18118 -76.65986 137 ft 15 kts 338°
2026-04-27 01:18 39.18229 -76.66044 138 ft 18 kts 335°
2026-04-27 01:18 39.18352 -76.66097 138 ft 18 kts 10°
2026-04-27 01:19 39.18438 -76.65970 137 ft 20 kts 55°
2026-04-27 01:19 39.18499 -76.65856 136 ft 17 kts 57°
2026-04-27 01:19 39.18560 -76.65764 136 ft 8 kts 26°
2026-04-27 01:19 39.18596 -76.65774 137 ft 0 kts 318°